Imperial, NE

5:10 PM MST on February 07, 2016 (GMT -0700)
Imperial Municipal

Weather History for KIML - February, 2013

Change the Weather History Date:

Wednesday, February 13, 2013

  Actual Average Record
Temperature  
Mean Temperature 37 °F 31 °F  
Max Temperature 51 °F 44 °F 72 °F (2011)
Min Temperature 23 °F 18 °F -24 °F (1905)
Degree Days  
Heating Degree Days 28 34  
Month to date heating degree days 367 456  
Cooling Degree Days 0 0  
Month to date cooling degree days 0 0  
Year to date cooling degree days 0 0  
Moisture  
Dew Point 21 °F    
Average Humidity 55    
Maximum Humidity 78    
Minimum Humidity 32    
Precipitation  
Precipitation 0.00 in 0.01 in 0.45 in (1930)
Sea Level Pressure  
Sea Level Pressure 29.97 in    
Wind  
Wind Speed 13 mph (WNW)    
Max Wind Speed 29 mph    
Max Gust Speed 35 mph    
Visibility 10 miles    
Events      
T = Trace of Precipitation, MM = Missing Value Source: NWS Daily Summary

Daily Weather History Graph

Daily Weather History Graph

Search for Another Location

Airport or City:

Trip Planner

Search our weather history database for the weather conditions in past years. The results will help you decide how hot, cold, wet, or windy it might be!

Date:

Astronomy

Feb. 13, 2013 Rise Set
Actual Time 6:42 AM MST 5:19 PM MST
Civil Twilight 6:14 AM MST 5:47 PM MST
Nautical Twilight 5:42 AM MST 6:19 PM MST
Astronomical Twilight 5:10 AM MST 6:51 PM MST
Moon 8:11 AM MST (2/13) 9:25 PM MST (2/13)
Length of Visible Light 11h 33m
Length of Day
10h 37m
Waxing Crescent, 14% of the Moon is Illuminated
Feb 13
Waxing Crescent
Feb 17
First Quarter
Feb 25
Full
Mar 4
Last Quarter
Mar 11
New

Hourly Weather History & Observations

Time (MST) Temp. Windchill Dew Point Humidity Pressure Visibility Wind Dir Wind Speed Gust Speed Precip Events Conditions
12:53 AM 25.0 °F 14.2 °F 16.0 °F 69% 30.05 in 10.0 mi WNW 11.5 mph - N/A   Clear
1:53 AM 24.1 °F 14.4 °F 16.0 °F 71% 30.04 in 10.0 mi WNW 9.2 mph - N/A   Clear
2:53 AM 27.0 °F 16.7 °F 17.1 °F 66% 30.01 in 10.0 mi WNW 11.5 mph - N/A   Clear
3:53 AM 28.9 °F 20.4 °F 18.0 °F 64% 29.99 in 10.0 mi WNW 9.2 mph - N/A   Clear
4:53 AM 27.0 °F 17.3 °F 17.1 °F 66% 29.99 in 10.0 mi West 10.4 mph - N/A   Clear
5:53 AM 25.0 °F 14.2 °F 15.1 °F 66% 30.00 in 10.0 mi West 11.5 mph - N/A   Clear
6:53 AM 23.0 °F 11.1 °F 15.1 °F 72% 30.01 in 10.0 mi West 12.7 mph - N/A   Clear
7:53 AM 28.9 °F 18.2 °F 16.0 °F 58% 30.01 in 10.0 mi West 13.8 mph - N/A   Clear
8:53 AM 35.1 °F 25.2 °F 19.0 °F 52% 29.99 in 10.0 mi WNW 16.1 mph - N/A   Clear
9:53 AM 41.0 °F 31.4 °F 21.9 °F 47% 29.97 in 10.0 mi NW 21.9 mph 29.9 mph N/A   Clear
10:53 AM 45.0 °F 36.4 °F 21.9 °F 40% 29.95 in 10.0 mi NW 23.0 mph 32.2 mph N/A   Clear
11:53 AM 48.9 °F - 24.1 °F 38% 29.94 in 10.0 mi NW 16.1 mph 26.5 mph N/A   Clear
12:53 PM 50.0 °F - 23.0 °F 35% 29.91 in 10.0 mi NW 23.0 mph 28.8 mph N/A   Clear
1:53 PM 50.0 °F - 21.9 °F 33% 29.90 in 10.0 mi NW 19.6 mph 27.6 mph N/A   Scattered Clouds
2:53 PM 50.0 °F - 23.0 °F 35% 29.89 in 10.0 mi NW 13.8 mph - N/A   Overcast
3:53 PM 50.0 °F - 21.9 °F 33% 29.90 in 10.0 mi NNW 11.5 mph 18.4 mph N/A   Mostly Cloudy
4:53 PM 46.9 °F - 24.1 °F 41% 29.90 in 10.0 mi NW 4.6 mph - N/A   Partly Cloudy
5:53 PM 42.1 °F 37.1 °F 24.1 °F 49% 29.92 in 10.0 mi West 8.1 mph - N/A   Clear
6:53 PM 37.0 °F 29.8 °F 24.1 °F 59% 29.96 in 10.0 mi WNW 10.4 mph - N/A   Clear
7:53 PM 37.0 °F 28.5 °F 25.0 °F 62% 29.98 in 10.0 mi WNW 13.8 mph - N/A   Clear
8:53 PM 35.1 °F 25.9 °F 24.1 °F 64% 30.00 in 10.0 mi NW 13.8 mph - N/A   Clear
9:53 PM 32.0 °F 24.8 °F 25.0 °F 75% 30.00 in 10.0 mi NW 8.1 mph - N/A   Partly Cloudy
10:53 PM 32.0 °F 22.1 °F 27.0 °F 82% 30.02 in 10.0 mi NW 13.8 mph - N/A   Clear
11:53 PM 32.0 °F 22.5 °F 27.0 °F 82% 30.02 in 10.0 mi NW 12.7 mph - N/A   Clear